Time,TemperatureF,DewpointF,PressureIn,WindDirection,WindDirectionDegrees,WindSpeedMPH,WindSpeedGustMPH,Humidity,HourlyPrecipIn,Conditions,Clouds,dailyrainin,SoftwareType,DateUTC
2013-10-06 00:02:00,33.8,18.0,30.18,NW,319,4.0,-999.0,52,-99.99,,,0.00,weatherlink.com 1.10,2013-10-06 06:02:00,
2013-10-06 00:17:00,33.1,18.0,30.18,NW,319,0.0,-999.0,55,-99.99,,,0.00,weatherlink.com 1.10,2013-10-06 06:17:00,
2013-10-06 00:32:00,32.5,19.0,30.18,NNW,334,2.0,-999.0,59,-99.99,,,0.00,weatherlink.com 1.10,2013-10-06 06:32:00,
2013-10-06 00:47:00,32.1,17.0,30.17,NNW,334,0.0,-999.0,54,-99.99,,,0.00,weatherlink.com 1.10,2013-10-06 06:47:00,
2013-10-06 01:02:00,31.0,18.0,30.17,NNW,334,3.0,-999.0,58,-99.99,,,0.00,weatherlink.com 1.10,2013-10-06 07:02:00,
2013-10-06 01:18:00,30.4,17.0,30.19,NNW,335,3.0,-999.0,59,-99.99,,,0.00,weatherlink.com 1.10,2013-10-06 07:18:00,
2013-10-06 01:33:00,31.0,18.0,30.18,NNW,335,2.0,-999.0,58,-99.99,,,0.00,weatherlink.com 1.10,2013-10-06 07:33:00,
2013-10-06 01:48:00,30.9,18.0,30.18,NNW,335,0.0,-999.0,58,-99.99,,,0.00,weatherlink.com 1.10,2013-10-06 07:48:00,
2013-10-06 02:03:00,31.3,18.0,30.18,NNW,341,2.0,-999.0,57,-99.99,,,0.00,weatherlink.com 1.10,2013-10-06 08:03:00,
2013-10-06 02:18:00,29.7,17.0,30.18,NNW,341,3.0,-999.0,60,-99.99,,,0.00,weatherlink.com 1.10,2013-10-06 08:18:00,
2013-10-06 02:33:00,28.8,17.0,30.19,NNW,341,3.0,-999.0,61,-99.99,,,0.00,weatherlink.com 1.10,2013-10-06 08:33:00,
2013-10-06 02:48:00,29.5,17.0,30.17,NNW,341,1.0,-999.0,60,-99.99,,,0.00,weatherlink.com 1.10,2013-10-06 08:48:00,
2013-10-06 03:03:00,28.4,17.0,30.17,NNW,341,0.0,-999.0,62,-99.99,,,0.00,weatherlink.com 1.10,2013-10-06 09:03:00,
2013-10-06 03:18:00,27.6,17.0,30.18,NNW,341,0.0,-999.0,65,-99.99,,,0.00,weatherlink.com 1.10,2013-10-06 09:18:00,
2013-10-06 03:33:00,28.1,17.0,30.18,NNW,341,0.0,-999.0,64,-99.99,,,0.00,weatherlink.com 1.10,2013-10-06 09:33:00,
2013-10-06 03:48:00,27.6,17.0,30.18,NNW,341,0.0,-999.0,65,-99.99,,,0.00,weatherlink.com 1.10,2013-10-06 09:48:00,
2013-10-06 04:03:00,27.8,17.0,30.19,NNW,341,2.0,-999.0,65,-99.99,,,0.00,weatherlink.com 1.10,2013-10-06 10:03:00,
2013-10-06 04:18:00,27.2,17.0,30.18,NNW,341,2.0,-999.0,66,-99.99,,,0.00,weatherlink.com 1.10,2013-10-06 10:18:00,
2013-10-06 04:33:00,26.6,17.0,30.19,NNW,341,3.0,-999.0,67,-99.99,,,0.00,weatherlink.com 1.10,2013-10-06 10:33:00,
2013-10-06 04:48:00,26.9,18.0,30.21,NNW,341,3.0,-999.0,69,-99.99,,,0.00,weatherlink.com 1.10,2013-10-06 10:48:00,
2013-10-06 05:03:00,26.9,18.0,30.20,NNW,341,0.0,-999.0,68,-99.99,,,0.00,weatherlink.com 1.10,2013-10-06 11:03:00,
2013-10-06 05:18:00,27.2,19.0,30.20,NE,43,1.0,-999.0,71,-99.99,,,0.00,weatherlink.com 1.10,2013-10-06 11:18:00,
2013-10-06 05:34:00,27.9,19.0,30.21,NE,44,2.0,-999.0,68,-99.99,,,0.00,weatherlink.com 1.10,2013-10-06 11:34:00,
2013-10-06 05:49:00,28.5,19.0,30.20,NE,53,2.0,-999.0,67,-99.99,,,0.00,weatherlink.com 1.10,2013-10-06 11:49:00,
2013-10-06 06:04:00,29.5,19.0,30.19,NE,53,2.0,-999.0,65,-99.99,,,0.00,weatherlink.com 1.10,2013-10-06 12:04:00,
2013-10-06 06:20:00,29.8,19.0,30.20,NE,53,4.0,-999.0,64,-99.99,,,0.00,weatherlink.com 1.10,2013-10-06 12:20:00,
2013-10-06 06:34:00,29.1,19.0,30.23,NE,53,2.0,-999.0,65,-99.99,,,0.00,weatherlink.com 1.10,2013-10-06 12:34:00,
2013-10-06 06:49:00,28.4,19.0,30.23,NE,53,2.0,-999.0,68,-99.99,,,0.00,weatherlink.com 1.10,2013-10-06 12:49:00,
2013-10-06 07:04:00,28.7,19.0,30.23,NE,53,4.0,-999.0,66,-99.99,,,0.00,weatherlink.com 1.10,2013-10-06 13:04:00,
2013-10-06 07:19:00,27.3,18.0,30.24,NE,53,3.0,-999.0,69,-99.99,,,0.00,weatherlink.com 1.10,2013-10-06 13:19:00,
2013-10-06 07:35:00,28.8,19.0,30.26,NE,53,5.0,-999.0,68,-99.99,,,0.00,weatherlink.com 1.10,2013-10-06 13:35:00,
2013-10-06 07:50:00,30.4,19.0,30.25,NE,52,0.0,-999.0,64,-99.99,,,0.00,weatherlink.com 1.10,2013-10-06 13:50:00,
2013-10-06 08:04:00,32.1,19.0,30.24,NE,52,2.0,-999.0,60,-99.99,,,0.00,weatherlink.com 1.10,2013-10-06 14:04:00,
2013-10-06 08:20:00,34.6,20.0,30.23,NE,52,3.0,-999.0,55,-99.99,,,0.00,weatherlink.com 1.10,2013-10-06 14:20:00,
2013-10-06 08:36:00,36.8,20.0,30.23,NE,52,1.0,-999.0,52,-99.99,,,0.00,weatherlink.com 1.10,2013-10-06 14:36:00,
2013-10-06 08:50:00,39.2,21.0,30.22,NE,52,4.0,-999.0,48,-99.99,,,0.00,weatherlink.com 1.10,2013-10-06 14:50:00,
2013-10-06 09:05:00,40.1,20.0,30.21,NE,51,0.0,-999.0,45,-99.99,,,0.00,weatherlink.com 1.10,2013-10-06 15:05:00,
2013-10-06 09:20:00,43.1,21.0,30.20,NE,51,0.0,-999.0,42,-99.99,,,0.00,weatherlink.com 1.10,2013-10-06 15:20:00,
2013-10-06 09:36:00,45.7,21.0,30.22,NE,51,2.0,-999.0,37,-99.99,,,0.00,weatherlink.com 1.10,2013-10-06 15:36:00,
2013-10-06 09:51:00,46.4,21.0,30.21,SW,234,0.0,-999.0,37,-99.99,,,0.00,weatherlink.com 1.10,2013-10-06 15:51:00,
2013-10-06 10:06:00,47.6,22.0,30.21,SSW,209,0.0,-999.0,36,-99.99,,,0.00,weatherlink.com 1.10,2013-10-06 16:06:00,
2013-10-06 10:21:00,48.6,23.0,30.20,WSW,243,0.0,-999.0,36,-99.99,,,0.00,weatherlink.com 1.10,2013-10-06 16:21:00,
2013-10-06 10:37:00,49.4,22.0,30.23,WSW,254,2.0,-999.0,34,-99.99,,,0.00,weatherlink.com 1.10,2013-10-06 16:37:00,
2013-10-06 10:52:00,50.7,23.0,30.22,SSW,210,3.0,-999.0,34,-99.99,,,0.00,weatherlink.com 1.10,2013-10-06 16:52:00,
2013-10-06 11:06:00,51.4,22.0,30.21,SSW,205,0.0,-999.0,32,-99.99,,,0.00,weatherlink.com 1.10,2013-10-06 17:06:00,
2013-10-06 11:21:00,53.5,22.0,30.19,South,184,0.0,-999.0,29,-99.99,,,0.00,weatherlink.com 1.10,2013-10-06 17:21:00,
2013-10-06 11:37:00,54.1,21.0,30.22,WSW,245,3.0,-999.0,28,-99.99,,,0.00,weatherlink.com 1.10,2013-10-06 17:37:00,
2013-10-06 11:52:00,55.1,21.0,30.20,West,264,0.0,-999.0,27,-99.99,,,0.00,weatherlink.com 1.10,2013-10-06 17:52:00,
2013-10-06 12:08:00,55.7,23.0,30.20,South,186,0.0,-999.0,28,-99.99,,,0.00,weatherlink.com 1.10,2013-10-06 18:08:00,
2013-10-06 12:23:00,55.7,22.0,30.19,SSW,213,0.0,-999.0,27,-99.99,,,0.00,weatherlink.com 1.10,2013-10-06 18:23:00,
2013-10-06 12:37:00,56.6,23.0,30.19,SSW,213,4.0,-999.0,27,-99.99,,,0.00,weatherlink.com 1.10,2013-10-06 18:37:00,
2013-10-06 12:52:00,57.6,23.0,30.18,SSW,208,5.0,-999.0,26,-99.99,,,0.00,weatherlink.com 1.10,2013-10-06 18:52:00,
2013-10-06 13:08:00,58.1,22.0,30.17,SW,228,4.0,-999.0,25,-99.99,,,0.00,weatherlink.com 1.10,2013-10-06 19:08:00,
2013-10-06 13:22:00,58.1,21.0,30.17,SSE,147,0.0,-999.0,24,-99.99,,,0.00,weatherlink.com 1.10,2013-10-06 19:22:00,
2013-10-06 13:38:00,58.7,22.0,30.16,West,279,3.0,-999.0,24,-99.99,,,0.00,weatherlink.com 1.10,2013-10-06 19:38:00,
2013-10-06 13:53:00,59.5,20.0,30.14,WSW,253,4.0,-999.0,22,-99.99,,,0.00,weatherlink.com 1.10,2013-10-06 19:53:00,
2013-10-06 14:08:00,60.2,19.0,30.12,WSW,253,1.0,-999.0,20,-99.99,,,0.00,weatherlink.com 1.10,2013-10-06 20:08:00,
2013-10-06 14:24:00,61.5,20.0,30.12,WSW,247,1.0,-999.0,20,-99.99,,,0.00,weatherlink.com 1.10,2013-10-06 20:24:00,
2013-10-06 14:39:00,61.6,20.0,30.12,South,179,1.0,-999.0,20,-99.99,,,0.00,weatherlink.com 1.10,2013-10-06 20:39:00,
2013-10-06 14:54:00,62.4,22.0,30.11,WSW,249,2.0,-999.0,21,-99.99,,,0.00,weatherlink.com 1.10,2013-10-06 20:54:00,
2013-10-06 15:09:00,63.5,22.0,30.10,WSW,240,2.0,-999.0,20,-99.99,,,0.00,weatherlink.com 1.10,2013-10-06 21:09:00,
2013-10-06 15:24:00,63.9,22.0,30.09,WSW,247,4.0,-999.0,20,-99.99,,,0.00,weatherlink.com 1.10,2013-10-06 21:24:00,
2013-10-06 15:40:00,64.5,22.0,30.10,WSW,241,3.0,-999.0,20,-99.99,,,0.00,weatherlink.com 1.10,2013-10-06 21:40:00,
2013-10-06 15:54:00,64.5,22.0,30.10,SW,220,6.0,-999.0,20,-99.99,,,0.00,weatherlink.com 1.10,2013-10-06 21:54:00,
2013-10-06 16:09:00,64.7,23.0,30.09,SSW,210,0.0,-999.0,20,-99.99,,,0.00,weatherlink.com 1.10,2013-10-06 22:09:00,
2013-10-06 16:25:00,65.3,22.0,30.09,WSW,251,0.0,-999.0,19,-99.99,,,0.00,weatherlink.com 1.10,2013-10-06 22:25:00,
2013-10-06 16:39:00,66.0,21.0,30.07,SW,221,1.0,-999.0,18,-99.99,,,0.00,weatherlink.com 1.10,2013-10-06 22:39:00,
2013-10-06 16:55:00,64.5,21.0,30.08,SSW,210,5.0,-999.0,19,-99.99,,,0.00,weatherlink.com 1.10,2013-10-06 22:55:00,
2013-10-06 17:10:00,64.2,20.0,30.08,WSW,257,4.0,-999.0,18,-99.99,,,0.00,weatherlink.com 1.10,2013-10-06 23:10:00,
2013-10-06 17:25:00,64.8,20.0,30.09,SW,236,5.0,-999.0,18,-99.99,,,0.00,weatherlink.com 1.10,2013-10-06 23:25:00,
2013-10-06 17:41:00,64.5,21.0,30.07,SW,217,3.0,-999.0,19,-99.99,,,0.00,weatherlink.com 1.10,2013-10-06 23:41:00,
2013-10-06 17:56:00,64.0,22.0,30.07,SW,218,3.0,-999.0,20,-99.99,,,0.00,weatherlink.com 1.10,2013-10-06 23:56:00,
2013-10-06 18:10:00,63.9,22.0,30.07,SW,221,6.0,-999.0,20,-99.99,,,0.00,weatherlink.com 1.10,2013-10-07 00:10:00,
2013-10-06 18:26:00,62.7,21.0,30.09,SW,229,4.0,-999.0,20,-99.99,,,0.00,weatherlink.com 1.10,2013-10-07 00:26:00,
2013-10-06 18:40:00,61.2,22.0,30.11,SW,221,0.0,-999.0,22,-99.99,,,0.00,weatherlink.com 1.10,2013-10-07 00:40:00,
2013-10-06 18:56:00,59.0,22.0,30.12,SW,221,0.0,-999.0,24,-99.99,,,0.00,weatherlink.com 1.10,2013-10-07 00:56:00,
2013-10-06 19:11:00,57.2,22.0,30.14,SW,221,0.0,-999.0,25,-99.99,,,0.00,weatherlink.com 1.10,2013-10-07 01:11:00,
2013-10-06 19:26:00,55.6,22.0,30.15,SW,221,0.0,-999.0,27,-99.99,,,0.00,weatherlink.com 1.10,2013-10-07 01:26:00,
2013-10-06 19:41:00,55.3,22.0,30.10,SW,221,0.0,-999.0,27,-99.99,,,0.00,weatherlink.com 1.10,2013-10-07 01:41:00,
2013-10-06 19:56:00,55.0,22.0,30.10,SW,221,0.0,-999.0,28,-99.99,,,0.00,weatherlink.com 1.10,2013-10-07 01:56:00,
2013-10-06 20:11:00,51.3,21.0,30.11,SW,221,0.0,-999.0,31,-99.99,,,0.00,weatherlink.com 1.10,2013-10-07 02:11:00,
2013-10-06 20:26:00,48.3,24.0,30.15,SW,221,0.0,-999.0,38,-99.99,,,0.00,weatherlink.com 1.10,2013-10-07 02:26:00,
2013-10-06 20:41:00,47.0,22.0,30.11,West,265,2.0,-999.0,37,-99.99,,,0.00,weatherlink.com 1.10,2013-10-07 02:41:00,
2013-10-06 20:56:00,45.1,22.0,30.13,WNW,290,0.0,-999.0,40,-99.99,,,0.00,weatherlink.com 1.10,2013-10-07 02:56:00,
2013-10-06 21:11:00,44.2,23.0,30.13,WNW,301,0.0,-999.0,43,-99.99,,,0.00,weatherlink.com 1.10,2013-10-07 03:11:00,
2013-10-06 21:26:00,43.5,22.0,30.14,WNW,301,3.0,-999.0,43,-99.99,,,0.00,weatherlink.com 1.10,2013-10-07 03:26:00,
2013-10-06 21:41:00,43.1,23.0,30.11,NW,307,0.0,-999.0,45,-99.99,,,0.00,weatherlink.com 1.10,2013-10-07 03:41:00,
2013-10-06 21:56:00,41.9,25.0,30.13,NW,307,0.0,-999.0,52,-99.99,,,0.00,weatherlink.com 1.10,2013-10-07 03:56:00,
2013-10-06 22:11:00,40.6,25.0,30.14,NW,307,0.0,-999.0,55,-99.99,,,0.00,weatherlink.com 1.10,2013-10-07 04:11:00,
2013-10-06 22:26:00,40.6,26.0,30.14,NW,319,3.0,-999.0,56,-99.99,,,0.00,weatherlink.com 1.10,2013-10-07 04:26:00,
2013-10-06 22:41:00,41.1,25.0,30.10,NNE,24,5.0,-999.0,54,-99.99,,,0.00,weatherlink.com 1.10,2013-10-07 04:41:00,
2013-10-06 22:56:00,40.5,24.0,30.10,NNE,23,2.0,-999.0,53,-99.99,,,0.00,weatherlink.com 1.10,2013-10-07 04:56:00,
2013-10-06 23:11:00,41.1,24.0,30.10,NNE,23,0.0,-999.0,51,-99.99,,,0.00,weatherlink.com 1.10,2013-10-07 05:11:00,
2013-10-06 23:26:00,40.6,24.0,30.10,NNE,15,2.0,-999.0,52,-99.99,,,0.00,weatherlink.com 1.10,2013-10-07 05:26:00,
2013-10-06 23:41:00,40.5,23.0,30.09,NNE,17,2.0,-999.0,51,-99.99,,,0.00,weatherlink.com 1.10,2013-10-07 05:41:00,
2013-10-06 23:56:00,40.5,23.0,30.09,NNE,17,2.0,-999.0,51,-99.99,,,0.00,weatherlink.com 1.10,2013-10-07 05:56:00,